QPF
0.00 0.00 0.00 0.00 0.00 0.00 0.00 0.00 0.00 0.00 0.00 0.00 0.00 0.00 0.00 0.00 0.00 0.00 0.00 0.00 0.00 0.00 0.00 0.00 0.00 0.00 0.00 0.00 0.00 0.00 0.00 0.00 0.00 0.00 0.00 0.00 0.00 0.00 0.00 0.00 0.00 0.00 0.00 0.00 0.00
0.00 0.00 0.00 0.00 0.00 0.00 0.00 0.00 0.00 0.00 0.00 0.00 0.00 0.00 0.00 0.00 0.00 0.00 0.00 0.00 0.00 0.00 0.00 0.00 0.00 0.00 0.00 0.00 0.00 0.00 0.00 0.00 0.00 0.00 0.00 0.00 0.00 0.00 0.00 0.00 0.00 0.00 0.00 0.00 0.00
0.00 0.00 0.00 0.00 0.00 0.00 0.00 0.00 0.00 0.00 0.00 0.00 0.00 0.00 0.00 0.00 0.00 0.00 0.00 0.00 0.00 0.00 0.00 0.00 0.00 0.00 0.00 0.00 0.00 0.00 0.00 0.00 0.00 0.00 0.00 0.00 0.00 0.00 0.00 0.00 0.00 0.00 0.00 0.00 0.00
0.00 0.00 0.00 0.00 0.00 0.00 0.00 0.00 0.00 0.00 0.00 0.00 0.00 0.00 0.00 0.00 0.00 0.00 0.00 0.00 0.00 0.00 0.00 0.00 0.00 0.00 0.00 0.00 0.00 0.00 0.00 0.00 0.00 0.00 0.00 0.00 0.00 0.00 0.00 0.00 0.00 0.00 0.00 0.00 0.00
0.00 0.00 0.00 0.00 0.00 0.00 0.00 0.00 0.00 0.00 0.00 0.00 0.00 0.00 0.00 0.00 0.00 0.00 0.00 0.00 0.00 0.00 0.00 0.00 0.00 0.00 0.00 0.00 0.00 0.00 0.00 0.00 0.00 0.00 0.00 0.00 0.00 0.00 0.00 0.00 0.00 0.00 0.00 0.00 0.00
0.00 0.00 0.00 0.00 0.00 0.00 0.00 0.00 0.00 0.00 0.00 0.00 0.00 0.00 0.00 0.00 0.00 0.00 0.00 0.00 0.00 0.00 0.00 0.00 0.00 0.00 0.00 0.00 0.00 0.00 0.00 0.00 0.00 0.00 0.00 0.00 0.00 0.00 0.00 0.00 0.00 0.00 0.00 0.00 0.00
0.00 0.00 0.00 0.00 0.00 0.00 0.00 0.00 0.00 0.00 0.00 0.00 0.00 0.00 0.00 0.00 0.00 0.00 0.00 0.00 0.00 0.00 0.00 0.00 0.00 0.00 0.00 0.00 0.00 0.00 0.00 0.00 0.00 0.00 0.00 0.00 0.00 0.00 0.00 0.00 0.00 0.00 0.00 0.00 0.00
0.00 0.00 0.00 0.00 0.00 0.00 0.00 0.00 0.00 0.00 0.00 0.00 0.00 0.00 0.00 0.00 0.00 0.00 0.00 0.00 0.00 0.00 0.00 0.00 0.00 0.00 0.00 0.00 0.00 0.00 0.00 0.00 0.00 0.00 0.00 0.00 0.00 0.00 0.00 0.00 0.00 0.00 0.00 0.00 0.00
0.00 0.00 0.00 0.00 0.00 0.00 0.00 0.00 0.00 0.00 0.00 0.00 0.00 0.00 0.00 0.00 0.00 0.00 0.00 0.00 0.00 0.00 0.00 0.00 0.00 0.00 0.00 0.00 0.00 0.00 0.00 0.00 0.00 0.00 0.00 0.00 0.00 0.00 0.00 0.00 0.00 0.00 0.00 0.00 0.00
0.00 0.00 0.00 0.00 0.00 0.00 0.00 0.00 0.00 0.00 0.00 0.00 0.00 0.00 0.00 0.00 0.00 0.00 0.00 0.00 0.00 0.00 0.00 0.00 0.00 0.00 0.00 0.00 0.00 0.00 0.00 0.00 0.00 0.00 0.00 0.00 0.00 0.00 0.00 0.00 0.00 0.00 0.00 0.00 0.00
0.00 0.00 0.00 0.00 0.00 0.00 0.00 0.00 0.00 0.00 0.00 0.00 0.00 0.00 0.00 0.00 0.00 0.00 0.00 0.00 0.00 0.00 0.00 0.00 0.00 0.00 0.00 0.00 0.00 0.00 0.00 0.00 0.00 0.00 0.00 0.00 0.00 0.00 0.00 0.00 0.00 0.00 0.00 0.00 0.00
0.00 0.00 0.00 0.00 0.00 0.00 0.00 0.00 0.00 0.00 0.00 0.00 0.00 0.00 0.00 0.00 0.00 0.00 0.00 0.00 0.00 0.00 0.00 0.00 0.00 0.00 0.00 0.00 0.00 0.00 0.00 0.00 0.00 0.00 0.00 0.00 0.00 0.00 0.00 0.00 0.00 0.00 0.00 0.00 0.00
0.00 0.00 0.00 0.00 0.00 0.00 0.00 0.00 0.00 0.00 0.00 0.00 0.00 0.00 0.00 0.00 0.00 0.00 0.00 0.00 0.00 0.00 0.00 0.00 0.00 0.00 0.00 0.00 0.00 0.00 0.00 0.00 0.00 0.00 0.00 0.00 0.00 0.00 0.00 0.00 0.00 0.00 0.00 0.00 0.00
0.00 0.00 0.00 0.00 0.00 0.00 0.00 0.00 0.00 0.00 0.00 0.00 0.00 0.00 0.00 0.00 0.00 0.00 0.00 0.00 0.00 0.00 0.00 0.00 0.00 0.00 0.00 0.00 0.00 0.00 0.00 0.00 0.00 0.00 0.00 0.00 0.00 0.00 0.00 0.00 0.00 0.00 0.00 0.00 0.00
0.00 0.00 0.00 0.00 0.00 0.00 0.00 0.00 0.00 0.00 0.00 0.00 0.00 0.00 0.00 0.00 0.00 0.00 0.00 0.00 0.00 0.00 0.00 0.00 0.00 0.00 0.00 0.00 0.00 0.00 0.00 0.00 0.00 0.00 0.00 0.00 0.00 0.00 0.00 0.00 0.00 0.00 0.00 0.00 0.00
0.00 0.00 0.00 0.00 0.00 0.00 0.00 0.00 0.00 0.00 0.00 0.00 0.00 0.00 0.00 0.00 0.00 0.00 0.00 0.00 0.00 0.00 0.00 0.00 0.00 0.00 0.00 0.00 0.00 0.00 0.00 0.00 0.00 0.00 0.00 0.00 0.00 0.00 0.00 0.00 0.00 0.00 0.00 0.00 0.00
0.00 0.00 0.00 0.00 0.00 0.00 0.00 0.00 0.00 0.00 0.00 0.00 0.00 0.00 0.00 0.00 0.00 0.00 0.00 0.00 0.00 0.00 0.00 0.00 0.00 0.00 0.00 0.00 0.00 0.00 0.00 0.00 0.00 0.00 0.00 0.00 0.00 0.00 0.00 0.00 0.00 0.00 0.00 0.00 0.00
0.00 0.00 0.00 0.00 0.00 0.00 0.00 0.00 0.00 0.00 0.00 0.00 0.00 0.00 0.00 0.00 0.00 0.00 0.00 0.00 0.00 0.00 0.00 0.00 0.00 0.00 0.00 0.00 0.00 0.00 0.00 0.00 0.00 0.00 0.00 0.00 0.00 0.00 0.00 0.00 0.00 0.00 0.00 0.00 0.00
0.00 0.00 0.00 0.00 0.00 0.00 0.00 0.00 0.00 0.00 0.00 0.00 0.00 0.00 0.00 0.00 0.00 0.00 0.00 0.00 0.00 0.00 0.00 0.00 0.00 0.00 0.00 0.00 0.00 0.00 0.00 0.00 0.00 0.00 0.00 0.00 0.00 0.00 0.00 0.00 0.00 0.00 0.00 0.00 0.00
0.00 0.00 0.00 0.00 0.00 0.00 0.00 0.00 0.00 0.00 0.00 0.00 0.00 0.00 0.00 0.00 0.00 0.00 0.00 0.00 0.00 0.00 0.00 0.00 0.00 0.00 0.00 0.00 0.00 0.00 0.00 0.00 0.00 0.00 0.00 0.00 0.00 0.00 0.00 0.00 0.00 0.00 0.00 0.00 0.00
0.00 0.00 0.00 0.00 0.00 0.00 0.00 0.00 0.00 0.00 0.00 0.00 0.00 0.00 0.00 0.00 0.00 0.00 0.00 0.00 0.00 0.00 0.00 0.00 0.00 0.00 0.00 0.00 0.00 0.00 0.00 0.00 0.00 0.00 0.00 0.00 0.00 0.00 0.00 0.00 0.00 0.00 0.00 0.00 0.00
0.00 0.00 0.00 0.00 0.00 0.00 0.00 0.00 0.00 0.00 0.00 0.00 0.00 0.00 0.00 0.00 0.00 0.00 0.00 0.00 0.00 0.00 0.00 0.00 0.00 0.00 0.00 0.00 0.00 0.00 0.00 0.00 0.00 0.00 0.00 0.00 0.00 0.00 0.00 0.00 0.00 0.00 0.00 0.00 0.00
0.00 0.00 0.00 0.00 0.00 0.00 0.00 0.00 0.00 0.00 0.00 0.00 0.00 0.00 0.00 0.00 0.00 0.00 0.00 0.00 0.00 0.00 0.00 0.01 0.00 0.00 0.00 0.00 0.00 0.00 0.00 0.00 0.00 0.00 0.00 0.01 0.00 0.00 0.00 0.00 0.00 0.00 0.00 0.00 0.00
0.00 0.00 0.00 0.00 0.00 0.00 0.00 0.00 0.00 0.00 0.00 0.00 0.00 0.00 0.00 0.00 0.00 0.00 0.00 0.00 0.00 0.00 0.00 0.01 0.00 0.00 0.00 0.00 0.00 0.00 0.00 0.00 0.00 0.01 0.00 0.00 0.00 0.00 0.00 0.00 0.00 0.00 0.00 0.00 0.00
0.00 0.00 0.00 0.00 0.00 0.00 0.00 0.00 0.00 0.00 0.00 0.00 0.00 0.00 0.00 0.00 0.00 0.00 0.00 0.00 0.00 0.00 0.00 0.00 0.00 0.00 0.00 0.00 0.00 0.00 0.00 0.00 0.00 0.00 0.00 0.00 0.00 0.00 0.00 0.00 0.00 0.00 0.00 0.00 0.00
0.00 0.00 0.00 0.00 0.00 0.00 0.00 0.00 0.00 0.00 0.00 0.00 0.00 0.00 0.00 0.00 0.00 0.00 0.00 0.00 0.00 0.00 0.01 0.01 0.01 0.00 0.00 0.00 0.00 0.00 0.00 0.00 0.00 0.00 0.00 0.00 0.00 0.00 0.00 0.00 0.00 0.00 0.00 0.00 0.00
0.00 0.00 0.00 0.00 0.00 0.00 0.00 0.00 0.00 0.00 0.00 0.00 0.00 0.00 0.00 0.00 0.00 0.00 0.00 0.00 0.00 0.00 0.00 0.01 0.00 0.00 0.00 0.00 0.00 0.00 0.00 0.00 0.00 0.00 0.00 0.00 0.00 0.00 0.00 0.00 0.00 0.00 0.00 0.00 0.00
MSLP
1019.90 1019.44 1018.99 1018.58 1018.24 1017.98 1017.70 1017.39 1017.13 1016.81 1016.49 1016.24 1016.01 1015.78 1015.50 1015.15 1014.70 1014.36 1013.22 1011.68 1011.63 1011.42 1011.31 1011.13 1010.81 1010.77 1010.83 1010.40 1010.18 1009.95 1009.33 1008.31 1008.46 1008.47 1007.83 1007.81 1007.76 1007.93 1007.78 1007.02 1006.59 1006.48 1006.29 1006.19 1006.12
1019.74 1019.30 1018.88 1018.45 1018.08 1017.75 1017.51 1017.21 1016.86 1016.57 1016.29 1016.03 1015.80 1015.58 1015.29 1014.88 1014.14 1012.93 1011.22 1011.28 1011.37 1011.29 1011.17 1010.92 1010.73 1010.74 1010.55 1010.27 1010.09 1009.49 1008.70 1008.07 1008.14 1008.06 1007.50 1007.69 1007.85 1007.95 1007.89 1007.23 1006.52 1006.21 1006.25 1006.31 1005.75
1019.64 1019.16 1018.68 1018.22 1017.88 1017.54 1017.24 1016.96 1016.68 1016.33 1016.07 1015.83 1015.63 1015.37 1015.05 1014.62 1013.44 1011.01 1010.63 1011.00 1011.20 1011.23 1011.28 1011.06 1010.85 1010.59 1010.37 1010.25 1009.92 1009.53 1008.43 1008.49 1008.29 1008.42 1008.15 1007.84 1007.37 1008.37 1007.85 1007.16 1006.77 1006.19 1005.85 1005.60 1005.49
1019.52 1019.02 1018.51 1018.05 1017.63 1017.27 1016.96 1016.67 1016.37 1016.21 1015.98 1015.77 1015.50 1015.24 1014.84 1014.43 1012.61 1010.74 1010.67 1010.89 1011.03 1011.15 1011.19 1010.94 1010.73 1010.43 1010.24 1010.04 1010.04 1009.79 1009.26 1008.92 1008.63 1008.57 1008.42 1008.18 1007.75 1007.94 1007.84 1007.42 1007.26 1006.41 1006.06 1005.64 1005.40
1019.38 1018.84 1018.31 1017.86 1017.46 1017.07 1016.68 1016.33 1016.07 1015.91 1015.84 1015.67 1015.42 1015.13 1014.71 1013.71 1011.49 1010.69 1010.76 1010.94 1011.12 1011.10 1010.87 1010.76 1010.52 1010.35 1010.06 1010.14 1010.18 1009.82 1009.55 1009.21 1008.90 1008.89 1008.79 1008.61 1007.60 1007.59 1007.47 1007.53 1007.37 1006.65 1005.84 1005.52 1005.15
1019.10 1018.67 1018.13 1017.62 1017.17 1016.75 1016.36 1016.04 1015.81 1015.64 1015.59 1015.50 1015.25 1015.00 1014.47 1012.70 1010.73 1010.77 1010.86 1011.13 1011.02 1011.03 1010.83 1010.69 1010.40 1010.32 1010.26 1010.24 1010.13 1010.02 1009.91 1009.41 1009.05 1008.70 1008.58 1008.11 1007.41 1008.25 1007.56 1007.53 1007.34 1006.79 1005.78 1005.34 1005.01
1018.77 1018.29 1017.85 1017.28 1016.76 1016.33 1015.91 1015.56 1015.36 1015.28 1015.21 1015.21 1015.07 1014.75 1013.92 1011.69 1010.69 1010.85 1010.93 1010.74 1010.80 1010.80 1010.58 1010.65 1010.44 1010.33 1010.33 1010.37 1010.51 1010.25 1009.95 1009.33 1008.85 1008.71 1008.52 1008.31 1007.85 1007.90 1007.97 1007.69 1007.34 1006.77 1006.03 1005.74 1005.30
1018.54 1018.05 1017.52 1016.94 1016.37 1015.88 1015.44 1015.09 1014.85 1014.81 1014.84 1014.85 1014.79 1014.55 1012.53 1010.83 1010.74 1010.59 1010.57 1010.47 1010.59 1010.67 1010.65 1010.50 1010.38 1010.35 1010.33 1010.56 1010.68 1010.36 1010.19 1009.33 1009.01 1008.77 1008.81 1008.76 1007.81 1008.04 1008.16 1008.08 1007.63 1007.13 1006.40 1006.02 1005.50
1018.26 1017.67 1017.09 1016.56 1016.03 1015.43 1014.91 1014.51 1013.99 1013.95 1014.41 1014.60 1014.54 1013.97 1011.48 1010.31 1010.27 1009.85 1010.01 1010.01 1010.08 1010.35 1010.44 1010.37 1010.39 1010.62 1010.64 1010.43 1010.39 1010.42 1009.59 1009.48 1008.94 1009.15 1009.21 1009.12 1008.25 1008.09 1008.46 1008.71 1007.87 1007.35 1006.62 1006.27 1005.77
1017.84 1017.29 1016.71 1016.21 1015.71 1015.20 1014.51 1014.07 1013.95 1013.78 1014.45 1014.35 1013.91 1013.63 1011.25 1010.49 1009.96 1009.71 1009.67 1009.88 1009.93 1010.11 1010.27 1010.42 1010.55 1010.49 1010.61 1010.30 1009.80 1010.05 1009.99 1009.86 1009.28 1009.22 1009.13 1008.77 1008.57 1008.54 1008.41 1008.71 1008.18 1007.14 1006.51 1006.31 1006.02
1017.43 1016.90 1016.35 1015.84 1015.36 1014.99 1014.53 1013.99 1014.18 1013.91 1013.72 1012.83 1012.38 1011.81 1010.98 1010.45 1010.09 1009.64 1009.46 1009.70 1009.85 1010.01 1010.11 1010.62 1010.38 1010.03 1010.07 1010.29 1010.33 1010.42 1010.42 1010.22 1010.07 1009.89 1009.75 1008.82 1008.07 1007.50 1007.92 1007.78 1007.36 1006.90 1006.66 1006.48 1006.23
1017.26 1016.62 1016.06 1015.52 1015.03 1014.74 1014.66 1013.71 1013.62 1013.65 1012.90 1011.88 1011.66 1011.41 1010.89 1010.65 1010.15 1009.49 1009.49 1009.67 1009.81 1009.94 1010.49 1010.63 1010.08 1010.17 1010.37 1010.40 1010.46 1010.49 1010.42 1010.39 1010.44 1010.40 1010.39 1009.08 1008.13 1007.51 1006.80 1006.79 1006.75 1006.62 1006.65 1006.58 1006.40
1016.89 1016.25 1015.70 1015.23 1014.82 1014.48 1014.07 1013.66 1013.56 1013.42 1012.80 1011.35 1010.81 1010.42 1010.16 1010.38 1009.95 1009.43 1009.39 1009.49 1009.67 1009.95 1010.28 1010.28 1010.11 1010.24 1010.34 1010.35 1010.37 1010.41 1010.45 1010.62 1010.70 1010.60 1010.07 1009.40 1007.33 1006.91 1006.40 1006.60 1006.57 1006.63 1006.56 1006.55 1006.50
1016.59 1015.84 1015.26 1014.85 1014.95 1014.51 1013.87 1013.64 1013.41 1013.25 1012.21 1011.01 1010.17 1009.62 1009.90 1009.89 1009.51 1009.01 1009.05 1009.24 1009.68 1009.84 1010.27 1010.28 1010.35 1010.23 1010.24 1010.18 1010.35 1010.28 1010.60 1010.91 1010.94 1010.70 1009.82 1009.80 1007.83 1007.14 1006.75 1006.16 1006.23 1006.10 1006.04 1006.04 1005.94
1016.13 1015.43 1014.99 1014.81 1014.63 1014.26 1014.03 1013.55 1013.25 1013.08 1011.86 1010.56 1009.53 1009.02 1009.33 1009.59 1009.29 1008.82 1008.88 1009.13 1009.27 1009.72 1010.30 1010.03 1010.05 1010.09 1010.02 1009.93 1010.35 1010.45 1010.93 1011.13 1011.15 1010.89 1010.61 1009.39 1008.86 1006.96 1006.95 1006.18 1006.06 1006.00 1005.86 1005.84 1005.97
1015.82 1015.22 1015.08 1015.04 1014.94 1014.00 1013.84 1013.58 1013.23 1012.78 1011.34 1010.30 1009.69 1009.45 1009.49 1009.50 1009.34 1009.03 1008.99 1009.21 1009.43 1009.90 1010.19 1009.96 1010.15 1010.03 1009.89 1010.21 1010.45 1010.89 1011.00 1011.19 1011.43 1011.11 1010.09 1009.37 1008.92 1006.41 1005.92 1005.71 1005.88 1005.78 1005.89 1006.07 1005.87
1015.46 1015.08 1015.09 1014.88 1014.45 1014.07 1013.86 1013.44 1013.09 1012.17 1011.64 1010.94 1010.30 1010.19 1010.14 1009.93 1009.67 1009.53 1009.42 1009.59 1009.81 1010.05 1010.07 1010.06 1010.07 1010.13 1010.13 1010.21 1010.74 1010.93 1011.18 1010.73 1010.69 1010.41 1009.61 1009.67 1008.68 1006.08 1005.89 1005.86 1005.62 1005.48 1005.58 1005.93 1006.21
1015.12 1014.83 1014.85 1014.49 1014.24 1014.04 1013.62 1013.41 1012.78 1012.29 1011.71 1011.30 1010.90 1010.62 1010.49 1010.47 1010.33 1010.25 1010.13 1010.03 1010.25 1010.25 1010.20 1010.15 1010.31 1010.31 1010.36 1010.16 1010.34 1010.97 1011.39 1011.43 1011.12 1010.70 1009.90 1009.79 1007.42 1005.36 1005.75 1005.88 1005.75 1005.59 1005.52 1005.73 1005.85
1014.72 1014.56 1014.45 1014.15 1013.99 1013.86 1013.45 1013.18 1012.77 1012.52 1012.25 1011.79 1011.30 1011.04 1010.99 1011.10 1011.14 1010.82 1010.65 1010.49 1010.55 1010.63 1010.60 1010.63 1010.68 1010.69 1010.58 1010.52 1010.69 1011.37 1011.66 1012.31 1012.12 1011.84 1010.91 1008.51 1006.69 1006.02 1005.42 1005.35 1005.29 1005.26 1005.57 1005.74 1005.81
1015.32 1014.81 1014.23 1014.10 1013.96 1013.78 1013.53 1013.27 1012.94 1012.54 1012.31 1011.97 1011.73 1011.64 1011.43 1011.45 1011.57 1011.37 1011.04 1010.96 1010.95 1011.15 1011.10 1011.33 1011.41 1011.07 1010.88 1010.98 1011.02 1010.97 1011.61 1012.48 1012.68 1011.74 1010.10 1007.80 1006.52 1005.10 1005.02 1005.09 1004.94 1005.17 1005.28 1005.45 1005.51
1015.40 1014.81 1014.13 1014.05 1013.92 1013.77 1013.81 1013.68 1013.13 1012.64 1012.51 1012.27 1011.85 1011.81 1011.79 1011.91 1011.98 1011.86 1011.54 1011.53 1011.39 1011.61 1011.82 1012.04 1012.23 1011.61 1011.55 1010.86 1010.52 1011.42 1011.59 1012.26 1012.63 1012.26 1010.68 1008.40 1005.59 1005.34 1005.13 1005.22 1005.13 1005.19 1005.40 1005.40 1005.05
1015.91 1015.13 1014.30 1014.01 1014.41 1015.13 1014.58 1014.31 1013.77 1012.91 1012.70 1012.54 1012.37 1012.19 1012.22 1012.33 1012.28 1012.23 1011.93 1011.76 1011.88 1011.89 1012.17 1012.75 1012.61 1011.84 1011.30 1010.79 1011.14 1011.05 1011.18 1011.68 1011.99 1011.82 1011.22 1010.06 1005.41 1005.36 1005.16 1005.47 1005.41 1004.98 1004.78 1004.90 1005.04
1016.93 1016.12 1014.71 1014.36 1015.26 1015.58 1015.36 1014.83 1014.19 1013.46 1013.12 1013.01 1012.92 1012.93 1012.95 1012.86 1012.88 1012.53 1012.45 1012.67 1012.55 1012.63 1012.72 1013.04 1013.01 1012.23 1011.06 1011.35 1011.39 1011.01 1011.14 1011.33 1011.64 1012.00 1010.59 1009.68 1005.88 1005.50 1005.13 1005.06 1005.09 1004.89 1004.67 1004.63 1004.60
1017.67 1017.06 1016.31 1016.30 1017.15 1016.93 1016.52 1015.58 1014.77 1014.19 1013.84 1013.79 1013.64 1013.69 1013.66 1013.48 1013.44 1013.10 1013.01 1013.01 1013.16 1013.16 1013.51 1013.89 1013.20 1012.69 1011.81 1010.89 1011.29 1011.13 1010.91 1011.04 1011.06 1010.81 1008.87 1008.31 1005.23 1005.52 1004.93 1004.78 1004.67 1004.68 1004.62 1004.45 1004.25
1018.66 1019.24 1019.38 1018.22 1017.81 1017.80 1017.49 1016.54 1015.72 1015.15 1014.87 1014.56 1014.46 1014.74 1014.71 1014.25 1013.87 1013.57 1013.53 1013.49 1013.34 1013.38 1013.29 1013.64 1013.17 1012.81 1012.06 1011.48 1011.14 1010.57 1010.10 1009.90 1009.82 1009.27 1008.74 1006.55 1005.77 1004.47 1004.34 1004.36 1004.52 1004.65 1004.62 1004.24 1004.01
1019.80 1020.02 1019.90 1019.10 1018.75 1018.37 1017.68 1016.92 1016.60 1016.30 1016.15 1015.33 1015.15 1015.17 1015.14 1014.74 1014.30 1013.94 1013.94 1014.02 1013.88 1013.64 1013.38 1013.79 1013.52 1013.16 1012.24 1011.37 1010.69 1009.81 1008.84 1008.41 1008.37 1008.13 1007.46 1006.20 1004.92 1004.87 1004.38 1004.56 1004.37 1004.32 1004.34 1003.91 1003.41
1020.69 1020.74 1020.33 1019.26 1018.87 1018.51 1017.72 1017.38 1017.21 1017.26 1016.24 1015.89 1015.73 1015.38 1014.97 1014.40 1014.24 1013.96 1014.05 1014.07 1013.96 1013.97 1013.86 1014.05 1013.94 1013.42 1011.86 1011.08 1010.41 1008.72 1006.91 1006.82 1006.99 1006.73 1006.24 1005.30 1004.39 1004.23 1003.97 1004.11 1004.34 1004.37 1004.28 1003.63 1002.52
Thickness
5573 5575 5578 5581 5585 5587 5590 5594 5598 5602 5606 5610 5614 5617 5621 5625 5630 5634 5644 5658 5658 5661 5663 5665 5669 5670 5671 5672 5677 5683 5668 5672 5682 5681 5695 5715 5712 5725 5735 5738 5747 5755 5761 5773 5786
5570 5572 5574 5578 5581 5585 5588 5591 5595 5599 5602 5606 5610 5613 5617 5621 5629 5637 5655 5654 5654 5656 5657 5658 5657 5660 5659 5663 5666 5670 5668 5676 5691 5694 5698 5707 5706 5709 5714 5724 5736 5747 5762 5771 5782
5566 5570 5573 5576 5579 5583 5586 5589 5592 5596 5599 5603 5605 5609 5613 5618 5629 5648 5653 5651 5650 5650 5651 5653 5653 5654 5651 5655 5657 5660 5666 5676 5683 5686 5691 5695 5701 5700 5706 5709 5728 5735 5751 5765 5772
5563 5567 5571 5575 5578 5582 5586 5589 5591 5593 5595 5598 5601 5604 5609 5614 5628 5644 5647 5645 5645 5645 5645 5645 5645 5643 5642 5643 5648 5647 5660 5666 5677 5680 5680 5681 5693 5693 5699 5707 5721 5735 5746 5756 5762
5563 5565 5570 5574 5578 5581 5585 5589 5591 5592 5593 5595 5597 5600 5605 5613 5627 5639 5639 5639 5639 5640 5639 5638 5637 5637 5636 5638 5640 5642 5648 5657 5666 5669 5671 5676 5685 5688 5690 5701 5709 5723 5736 5745 5754
5565 5565 5569 5574 5579 5582 5585 5588 5590 5592 5592 5593 5595 5597 5601 5610 5632 5632 5632 5631 5632 5632 5632 5634 5635 5636 5632 5632 5633 5638 5639 5647 5655 5662 5666 5670 5682 5671 5686 5692 5698 5710 5723 5735 5744
5569 5570 5571 5576 5581 5584 5587 5590 5591 5592 5593 5592 5592 5594 5599 5615 5627 5625 5625 5627 5627 5627 5626 5628 5632 5629 5629 5625 5629 5630 5630 5639 5648 5651 5656 5665 5663 5664 5672 5683 5690 5700 5712 5721 5731
5574 5574 5576 5579 5583 5587 5589 5592 5593 5594 5593 5592 5592 5592 5606 5621 5621 5622 5622 5622 5623 5622 5621 5625 5627 5624 5623 5623 5620 5621 5621 5626 5637 5643 5648 5651 5654 5663 5664 5669 5678 5689 5699 5708 5721
5580 5580 5581 5583 5585 5588 5591 5593 5598 5598 5594 5591 5592 5593 5609 5622 5619 5624 5621 5617 5618 5616 5616 5619 5618 5611 5613 5612 5610 5612 5614 5618 5628 5633 5634 5637 5642 5659 5658 5657 5664 5677 5688 5698 5709
5586 5586 5587 5587 5587 5589 5592 5594 5595 5597 5592 5591 5593 5594 5611 5610 5616 5619 5620 5615 5610 5608 5606 5606 5603 5603 5601 5605 5602 5601 5604 5608 5614 5626 5631 5634 5636 5647 5653 5651 5657 5669 5679 5689 5699
5591 5591 5591 5592 5592 5591 5592 5595 5598 5598 5594 5603 5604 5603 5606 5611 5614 5613 5615 5608 5605 5601 5593 5592 5594 5592 5597 5598 5599 5597 5596 5598 5606 5614 5616 5627 5633 5647 5649 5651 5657 5664 5669 5672 5685
5593 5594 5594 5594 5595 5594 5592 5601 5597 5595 5595 5602 5600 5599 5603 5604 5597 5606 5609 5597 5594 5587 5585 5585 5585 5591 5590 5590 5590 5590 5590 5591 5597 5603 5602 5617 5624 5637 5650 5650 5653 5657 5662 5665 5670
5597 5598 5598 5597 5597 5597 5599 5598 5594 5593 5591 5600 5602 5601 5601 5599 5593 5596 5601 5593 5587 5581 5579 5576 5584 5585 5583 5583 5583 5584 5583 5582 5584 5590 5599 5602 5624 5631 5644 5642 5645 5649 5656 5660 5662
5600 5601 5601 5600 5598 5595 5599 5595 5593 5591 5591 5598 5600 5601 5598 5595 5589 5600 5597 5591 5582 5577 5573 5574 5577 5578 5577 5576 5579 5574 5582 5577 5577 5580 5586 5592 5601 5618 5625 5632 5633 5640 5647 5653 5659
5603 5604 5603 5599 5600 5600 5595 5593 5591 5590 5580 5597 5597 5606 5597 5588 5588 5590 5593 5584 5574 5572 5571 5570 5571 5571 5570 5574 5573 5571 5570 5569 5570 5572 5572 5590 5585 5611 5612 5617 5621 5627 5633 5641 5646
5604 5604 5600 5597 5593 5596 5593 5591 5590 5582 5573 5588 5593 5586 5582 5581 5579 5582 5581 5581 5576 5565 5563 5566 5569 5570 5570 5567 5566 5562 5563 5562 5556 5561 5570 5577 5579 5608 5612 5613 5613 5619 5621 5623 5629
5605 5602 5597 5594 5597 5592 5590 5591 5583 5580 5585 5578 5577 5578 5573 5569 5570 5569 5565 5562 5559 5551 5553 5558 5557 5560 5563 5558 5555 5555 5552 5553 5558 5563 5571 5567 5572 5603 5602 5602 5603 5606 5610 5607 5606
5605 5602 5597 5594 5592 5590 5590 5586 5575 5575 5575 5579 5575 5572 5565 5563 5560 5556 5553 5551 5551 5550 5546 5545 5543 5548 5552 5554 5551 5546 5546 5541 5532 5548 5561 5561 5573 5599 5597 5589 5585 5588 5592 5594 5597
5605 5602 5598 5594 5590 5587 5587 5577 5574 5570 5571 5567 5568 5560 5557 5554 5549 5547 5542 5541 5541 5542 5539 5533 5533 5541 5544 5546 5546 5533 5534 5534 5526 5530 5532 5564 5582 5589 5590 5582 5578 5577 5574 5574 5583
5596 5596 5596 5590 5586 5585 5582 5570 5570 5571 5567 5565 5554 5554 5547 5545 5538 5536 5535 5536 5532 5531 5532 5526 5518 5531 5534 5535 5535 5536 5535 5522 5520 5518 5532 5563 5566 5575 5577 5570 5573 5565 5564 5565 5567
5594 5597 5593 5586 5583 5582 5574 5566 5565 5568 5562 5556 5553 5548 5545 5537 5532 5527 5527 5526 5526 5521 5519 5515 5511 5521 5519 5526 5532 5521 5523 5518 5517 5520 5528 5541 5572 5573 5567 5560 5560 5558 5553 5551 5556
5583 5590 5587 5583 5579 5552 5565 5557 5555 5560 5556 5550 5546 5541 5535 5530 5524 5520 5518 5518 5517 5516 5509 5503 5503 5510 5517 5527 5522 5524 5525 5523 5515 5518 5517 5514 5558 5568 5562 5551 5550 5552 5552 5548 5546
5572 5572 5579 5578 5568 5561 5553 5552 5550 5551 5547 5540 5534 5529 5523 5520 5512 5513 5511 5504 5504 5503 5500 5496 5495 5500 5516 5515 5513 5518 5518 5519 5515 5498 5515 5511 5547 5554 5552 5548 5545 5542 5543 5542 5540
5566 5574 5568 5557 5539 5542 5536 5544 5542 5542 5537 5528 5523 5516 5510 5506 5502 5501 5500 5499 5495 5494 5490 5485 5492 5496 5504 5517 5510 5508 5516 5515 5512 5499 5527 5524 5549 5544 5545 5542 5541 5537 5532 5532 5533
5547 5538 5525 5550 5541 5527 5521 5525 5530 5529 5522 5516 5508 5494 5488 5488 5489 5490 5489 5487 5489 5488 5487 5484 5486 5494 5502 5506 5507 5512 5516 5516 5512 5517 5510 5534 5535 5548 5542 5538 5533 5526 5522 5524 5523
5542 5532 5521 5523 5516 5517 5519 5524 5516 5512 5503 5505 5495 5480 5474 5472 5478 5478 5480 5476 5475 5481 5485 5476 5475 5481 5489 5500 5506 5510 5521 5524 5521 5520 5520 5527 5532 5537 5535 5527 5521 5513 5506 5508 5513
5518 5513 5516 5521 5518 5520 5523 5515 5507 5493 5500 5491 5480 5472 5468 5473 5474 5474 5473 5471 5474 5472 5476 5470 5473 5482 5495 5501 5502 5517 5535 5533 5528 5529 5528 5527 5538 5535 5529 5520 5507 5498 5491 5493 5506